Simultaneous Nadir Overpasses (SNOs) Predictions

Prediction of SNOs between GOES-17 and METOP-B Satellite Orbit:

Table of predicted SNOs for the next 14.0 days since TLE Epoch: 9/26/2020
Index Date Time (GOES-17) GOES-17 Lat,Lon METOP-B Lat,Lon Distance(km) Time Diff (sec)
1 09/26/2020 06:33:18 0.04,-137.21 0.39,-135.58 184.98 80
2 09/27/2020 18:49:30 -0.04,-137.20 0.61,-140.14 335.14 80
3 09/28/2020 18:31:32 -0.04,-137.20 -0.52,-135.15 233.67 80
4 09/30/2020 06:50:33 0.04,-137.20 -0.54,-139.74 290.74 80
5 10/01/2020 06:27:14 0.04,-137.19 0.59,-134.75 277.82 80
6 10/02/2020 18:46:07 -0.04,-137.18 0.42,-139.31 242.97 80
7 10/03/2020 18:28:07 -0.04,-137.17 -0.65,-134.31 325.32 80
8 10/05/2020 06:47:09 0.04,-137.16 -0.34,-138.92 199.99 80
9 10/06/2020 06:26:30 0.04,-137.15 0.73,-133.91 367.77 80
10 10/07/2020 18:42:42 -0.04,-137.12 0.29,-138.47 154.61 80
11 10/08/2020 18:24:44 -0.03,-137.10 -0.84,-133.48 412.66 80
